Find Starlink 35300

NORAD ID: 65800 Int'l Des: 2025-218 Owner: SPXS Country: US Constellation: starlink operational
LEOCIRCULARRETROGRADESSO

リアルタイム位置

3D地球を読み込み中...

Starlink 35300について

説明を読み込み中...

次回通過

Passes for default location (London). Set your location on the main map for personalized predictions.

高度履歴

Loading altitude history...

軌道要素

1 65800U 25218K 26106.09127950 .00003912 00000-0 27511-3 0 9999
2 65800 97.6038 329.7560 0002475 67.4230 292.7258 15.05656664 30592
Epoch: Apr 16, 2026 • Age: 10 hours

現在のステータス

高度 554.8 km
速度 7.58 km/s
衛星直下点 -7.88°S, 115.58°E
打ち上げ日 Sep 26, 2025
運用期間 0.5 years
タイプ internet

技術仕様

分類 Payload
質量 575.00 kg
乾燥質量 530.00 kg
総質量 575.00 kg
長さ 0.30 m
直径 4.10 m
スパン 29.00 m
形状 Box + pan
製造者 SPXS
バスタイプ Starlink V2MO
フェーズステータス In Orbit
所有者/国 SPXS/US

Most Searched